Regional Weather Roundup
Issued by NWS

Home | Current Version | Previous Version | Text Only | Print | Product List | Glossary On
Versions: 1 2 3 4 5 6 7 8 9 10 11 12 13 14 15 16 17 18 19 20 21 22 23 24 25 26 27 28 29 30 31 32 33 34 35 36 37 38 39 40 41 42 43 44 45 46 47 48 49 50
000
ASUS43 KMKX 260810
RWRWI

WISCONSIN REGIONAL WEATHER ROUNDUP
NATIONAL WEATHER SERVICE MILWAUKEE/SULLIVAN WI
200 AM CST MON JAN 26 2015

NOTE: "FAIR" INDICATES FEW OR NO CLOUDS BELOW 12,000 FEET WITH NO
SIGNIFICANT WEATHER AND/OR OBSTRUCTIONS TO VISIBILITY.

WIZ001-002-006>008-014>016-023>028-260900-
NORTHWEST WISCONSIN

CITY           SKY/WX    TMP DP  RH WIND       PRES   REMARKS
SUPERIOR ARPT  CLOUDY    22  13  67 SW10      29.85F WCI  11
ASHLAND        CLOUDY    17  10  74 CALM      29.89F
HAYWARD        CLOUDY    18   9  68 S10       29.87F WCI   6
SIREN          CLOUDY    21  13  71 S7        29.87F WCI  13
CUMBERLAND     CLOUDY    18  12  79 S7        29.88F WCI   8
RICE LAKE      CLOUDY    18  11  75 SE6       29.91F WCI   9
CHETEK         CLOUDY    19  12  74 S6        29.92S WCI  10
LADYSMITH      CLOUDY    17  10  76 S6        29.93F WCI   8
EAU CLAIRE     CLOUDY    20  11  68 S9        29.94F WCI   9
MENOMONIE      CLOUDY    20  14  75 S5        29.95S WCI  14
NEW RICHMOND   CLOUDY    20  16  84 S8        29.90F WCI  10
OSCEOLA        CLOUDY    22  17  83 S8        29.93S WCI  12
$$

WIZ003>005-009-010-017-018-260900-
NORTH CENTRAL WISCONSIN

CITY           SKY/WX    TMP DP  RH WIND       PRES   REMARKS
MANITOWISH WTR MOCLDY    11   4  75 S3        29.87F
ARBOR VITAE    MOCLDY    11   5  76 S6        29.88F WCI   2
WOODRUFF       MOCLDY    11   5  76 S6        29.88F WCI   2
RHINELANDER    PTCLDY    10   3  73 S6        29.90F WCI   0
EAGLE RIVER    CLOUDY    10   4  74 S5        29.89S WCI   2
LAND O LAKES   CLOUDY    11   6  79 SW5       29.89S WCI   3
PHILLIPS       CLOUDY    12   6  77 S7        29.88F WCI   2
TOMAHAWK       MOCLDY     9   4  82 CALM      29.92S
MEDFORD        MOCLDY    13   6  73 S10       29.90F WCI   0
MERRILL        PTCLDY    10   5  80 S3        29.93F
$$

WIZ029-030-035-036-043>047-260900-
CENTRAL WISCONSIN

CITY           SKY/WX    TMP DP  RH WIND       PRES   REMARKS
WAUSAU         PTCLDY    10   5  80 SE5       29.94F WCI   2
MOSINEE        CLEAR     10   7  85 S6        29.96F WCI   1
MARSHFIELD     CLEAR     12   6  77 S7        29.95F WCI   1
STEVENS POINT  CLEAR      4   0  85 CALM      29.98S
WAUPACA        PTCLDY    11   7  82 CALM      30.00F
WAUTOMA        PTCLDY     8   5  87 CALM      30.01F
WISC RAPIDS    CLEAR     10   5  80 S5        29.99F WCI   2
CAMP DOUGLAS   MOCLDY    11  10  99 S5        29.99F WCI   2
$$

WIZ011>013-019>022-031-037>040-048>050-260900-
NORTHEAST WISCONSIN

CITY           SKY/WX    TMP DP  RH WIND       PRES   REMARKS
ANTIGO         PTCLDY     7   3  84 S6        29.93S WCI  -3
SHAWANO        PTCLDY    10   7  87 CALM      30.00F
OCONTO         PTCLDY     6   4  91 CALM      30.01F
STURGEON BAY   PTCLDY    10   5  79 CALM      30.01S
GREEN BAY      PTCLDY    12   8  84 CALM      30.01F
MANITOWOC      PTCLDY    12  10  92 CALM      30.00F
APPLETON       PTCLDY    12   5  73 CALM      29.98F
CLINTONVILLE   PTCLDY    10   7  85 CALM      29.99F
OSHKOSH        PTCLDY    11   6  81 CALM      29.99F
$$

WIZ032>034-041-042-053>061-260900-
SOUTHWEST WISCONSIN

CITY           SKY/WX    TMP DP  RH WIND       PRES   REMARKS
LA CROSSE      CLOUDY    23  13  65 S8        30.00F WCI  14
SPARTA         PTCLDY    15  11  87 CALM      30.00F
VIROQUA        CLOUDY    18  12  79 S7        29.97S WCI   8
BOSCOBEL       PTCLDY    14  10  84 CALM      30.04F
PRAIRIE DU CHI CLOUDY    19  13  78 CALM      30.03F
PLATTEVILLE    CLEAR     14  11  87 CALM      30.00F
$$

WIZ056-057-062-063-064-067-068-260900-
SOUTH CENTRAL WISCONSIN

CITY           SKY/WX    TMP DP  RH WIND       PRES   REMARKS
REEDSBURG      CLEAR     12   9  87 CALM      30.01S
BARABOO/DELLS  CLEAR     10   7  87 CALM      30.00S
LONE ROCK      CLEAR     12   7  80 CALM      30.03F
MINERAL POINT  NOT AVBL
MADISON        CLEAR     11   7  84 CALM      30.00F
MIDDLETON      CLEAR     12   8  83 CALM      30.00F
WATERTOWN      CLEAR     13   9  83 NW3       29.99F
MONROE         PTCLDY    14  12  92 N6        29.99F WCI   5
JANESVILLE     FAIR      14  10  85 CALM      30.00F
$$

WIZ051-052-058>065-066-070>072-260900-
SOUTHEAST WISCONSIN

CITY           SKY/WX    TMP DP  RH WIND       PRES   REMARKS
MILWAUKEE      MOCLDY    18  11  74 NW6       30.00F WCI  10
WAUKESHA       CLEAR     12   9  85 W5        29.99F WCI   4
MILWAUKEE/TIMM CLEAR     14  10  85 CALM      30.00F
RACINE         CLOUDY    24  15  68 E6        30.01F WCI  17
BURLINGTON     CLEAR     11   8  89 NW5       29.99S WCI   3
KENOSHA        CLOUDY    17  12  80 NW5       29.99F WCI  10
FOND DU LAC    PTCLDY    11   7  84 CALM      30.00F
SHEBOYGAN      PTCLDY    12   8  84 CALM      29.99F
WEST BEND      PTCLDY    12   9  85 CALM      29.99S
JUNEAU         CLEAR     12   8  81 CALM      30.00F
$$

LSZ147-162-260900-
LAKE SUPERIOR

STATION/POSITION TIME  TEMP    WIND        PRES    WAVE
                       AIR SEA DIR/SP/G            HT/PER
                 (UTC) (F)     (DEG/KT/KT) (MB)    (FT/S)
DEVILS ISLAND    0800   21     190/  9/ 11 1012.9F
PORT WING        0700   20     170/  8/ 12 1012.2F
SAXON HARBOR     0700   19     190/  6/ 11 1012.5F
$$

LMZ867-665-643>646-260900-
LAKE MICHIGAN

STATION/POSITION TIME  TEMP    WIND        PRES    WAVE
                       AIR SEA DIR/SP/G            HT/PER
                 (UTC) (F)     (DEG/KT/KT) (MB)    (FT/S)
NORTHPORT PIER   0713   10      CALM  /  3 1016.6F
SISTER BAY       0743    8        CALM       N/A
KEWAUNEE LAKESHO 0700   14     280/  4/  6 1015.7F
SHEBOYGAN LAKESH 0800   23     120/  7/ 10 1017.3F
PORT WASHINGTON  0740   18        CALM     1016.9F
MILWAUKEE LAKESH 0700   20     330/  6/  8   N/A
KENOSHA   LAKESH 0800   25      70/  8/ 14 1015.9F
$$

TC  - TEMPERATURE IN CELSIUS
VSB - VISIBILITY IN STATUTE MILES
WCI - WIND CHILL INDEX
HX  - HEAT INDEX




USA.gov is the U.S. government's official web portal to all federal, state and local government web resources and services.